Terminal Aerodrome Forecast
Issued by NWS Aberdeen, SD

Home | Current Version | Previous Version | Text Only | Print | Product List | Glossary On
Versions: 1 2 3 4 5 6 7 8 9 10 11 12 13 14 15 16 17 18 19 20 21 22 23 24 25 26 27 28 29 30 31 32 33 34 35 36 37 38 39 40 41 42 43 44 45 46
000
FTAK31 PAFA 240410 AAB
TAFABR
TAF AMD
PABR 240410Z 2404/2424 04007KT 1/2SM FZFG OVC002
      TEMPO 2404/2408 2SM BR OVC004
     FM241700 07009KT 3SM BR OVC006
     FM242000 08010KT P6SM BKN008=

USA.gov is the U.S. government's official web portal to all federal, state and local government web resources and services.